Hourly Weather Aban

Today, 21 January, Thursday

Time Temperature Precipitation Wind Pressure Humidity
00:00 -33°C° 0 mm 1 mps 748 mmHg 93%
01:00 -33°C° 0 mm 1 mps 748 mmHg 93%
02:00 -33°C° 0 mm 1 mps 748 mmHg 94%
03:00 -33°C° 0 mm 1 mps 748 mmHg 94%
04:00 -34°C° 0 mm 1 mps 748 mmHg 94%
05:00 -34°C° 0 mm 1 mps 748 mmHg 95%
06:00 -33°C° 0 mm 1 mps 747 mmHg 96%
07:00 -33°C° 0 mm 1 mps 747 mmHg 96%
08:00 -32°C° 0 mm 1 mps 746 mmHg 96%
09:00 -31°C° 0 mm 1 mps 746 mmHg 95%
10:00 -29°C° 0 mm 1 mps 745 mmHg 94%
11:00 -28°C° 0 mm 1 mps 745 mmHg 93%
12:00 -25°C° 0 mm 1 mps 745 mmHg 91%
13:00 -25°C° 0 mm 1 mps 744 mmHg 92%
14:00 -27°C° 0 mm 2 mps 743 mmHg 93%
15:00 -27°C° 0 mm 2 mps 742 mmHg 94%
16:00 -27°C° 0 mm 2 mps 742 mmHg 94%
17:00 -27°C° 0 mm 2 mps 742 mmHg 95%
18:00 -28°C° 0 mm 2 mps 741 mmHg 95%
19:00 -28°C° 0 mm 2 mps 741 mmHg 96%
20:00 -27°C° 0 mm 2 mps 740 mmHg 96%
21:00 -27°C° 0 mm 2 mps 740 mmHg 97%
22:00 -27°C° 0.1 mm 2 mps 740 mmHg 97%
23:00 -26°C° 0.1 mm 2 mps 739 mmHg 97%

Tomorrow, 22 January, Friday

Time Temperature Precipitation Wind Pressure Humidity
00:00 -26°C° 0.1 mm 2 mps 739 mmHg 98%
01:00 -26°C° 0 mm 2 mps 738 mmHg 98%
02:00 -26°C° 0 mm 2 mps 738 mmHg 98%
03:00 -26°C° 0 mm 2 mps 737 mmHg 98%
04:00 -26°C° 0 mm 2 mps 736 mmHg 98%
05:00 -26°C° 0 mm 2 mps 736 mmHg 98%
06:00 -26°C° 0 mm 2 mps 735 mmHg 98%
07:00 -25°C° 0 mm 2 mps 735 mmHg 97%
08:00 -25°C° 0 mm 2 mps 734 mmHg 97%
09:00 -24°C° 0 mm 2 mps 734 mmHg 97%
10:00 -23°C° 0.1 mm 2 mps 733 mmHg 97%
11:00 -23°C° 0.1 mm 3 mps 732 mmHg 96%
12:00 -22°C° 0.1 mm 3 mps 731 mmHg 96%
13:00 -21°C° 0.4 mm 3 mps 731 mmHg 96%
14:00 -19°C° 0.4 mm 2 mps 731 mmHg 96%
15:00 -19°C° 0.4 mm 2 mps 731 mmHg 96%
16:00 -19°C° 0.3 mm 2 mps 731 mmHg 97%
17:00 -18°C° 0.3 mm 1 mps 732 mmHg 97%
18:00 -18°C° 0.3 mm 1 mps 733 mmHg 97%
19:00 -19°C° 0 mm 1 mps 733 mmHg 97%
20:00 -19°C° 0 mm 1 mps 734 mmHg 98%
21:00 -20°C° 0 mm 1 mps 734 mmHg 98%
22:00 -20°C° 0 mm 1 mps 735 mmHg 97%
23:00 -21°C° 0 mm 2 mps 736 mmHg 97%

Day after tomorrow, 23 January, Saturday

Time Temperature Precipitation Wind Pressure Humidity
00:00 -21°C° 0 mm 2 mps 737 mmHg 96%
01:00 -23°C° 0 mm 3 mps 739 mmHg 94%
02:00 -22°C° 0 mm 3 mps 740 mmHg 93%
03:00 -23°C° 0 mm 4 mps 741 mmHg 91%
04:00 -23°C° 0 mm 3 mps 742 mmHg 92%
05:00 -24°C° 0 mm 3 mps 742 mmHg 92%
06:00 -25°C° 0 mm 3 mps 743 mmHg 92%
07:00 -25°C° 0 mm 3 mps 744 mmHg 92%
08:00 -24°C° 0 mm 2 mps 745 mmHg 93%
09:00 -25°C° 0 mm 2 mps 746 mmHg 93%
10:00 -24°C° 0 mm 2 mps 746 mmHg 91%
11:00 -24°C° 0 mm 3 mps 747 mmHg 89%
12:00 -23°C° 0 mm 3 mps 747 mmHg 88%
13:00 -21°C° 0 mm 2 mps 747 mmHg 89%
14:00 -21°C° 0 mm 2 mps 748 mmHg 90%
15:00 -20°C° 0 mm 1 mps 748 mmHg 92%
16:00 -20°C° 0 mm 1 mps 748 mmHg 92%
17:00 -20°C° 0 mm 1 mps 748 mmHg 93%
18:00 -20°C° 0 mm 1 mps 749 mmHg 93%
19:00 -20°C° 0 mm 1 mps 749 mmHg 95%
20:00 -20°C° 0 mm 1 mps 749 mmHg 96%
21:00 -21°C° 0 mm 2 mps 750 mmHg 98%
22:00 -21°C° 0.1 mm 2 mps 750 mmHg 98%
23:00 -20°C° 0.1 mm 1 mps 750 mmHg 98%

24 January, Sunday

Time Temperature Precipitation Wind Pressure Humidity
00:00 -20°C° 0.1 mm 1 mps 750 mmHg 98%
01:00 -20°C° 0 mm 1 mps 750 mmHg 98%
02:00 -20°C° 0 mm 1 mps 750 mmHg 98%
03:00 -20°C° 0 mm 1 mps 750 mmHg 98%
04:00 -21°C° 0 mm 1 mps 750 mmHg 98%
05:00 -21°C° 0 mm 1 mps 750 mmHg 98%
06:00 -22°C° 0 mm 1 mps 750 mmHg 98%
07:00 -21°C° 0 mm 1 mps 750 mmHg 98%
08:00 -20°C° 0 mm 1 mps 751 mmHg 98%
09:00 -19°C° 0 mm 1 mps 751 mmHg 98%
10:00 -18°C° 0 mm 1 mps 751 mmHg 96%
11:00 -17°C° 0 mm 1 mps 750 mmHg 95%
12:00 -16°C° 0 mm 1 mps 750 mmHg 93%
13:00 -16°C° 0 mm 1 mps 750 mmHg 94%
14:00 -17°C° 0 mm 1 mps 750 mmHg 94%
15:00 -17°C° 0 mm 1 mps 750 mmHg 95%
16:00 -18°C° 0 mm 1 mps 750 mmHg 95%
17:00 -19°C° 0 mm 1 mps 750 mmHg 96%
18:00 -19°C° 0 mm 1 mps 750 mmHg 96%
19:00 -20°C° 0 mm 1 mps 751 mmHg 95%
20:00 -20°C° 0 mm 1 mps 751 mmHg 94%
21:00 -20°C° 0 mm 1 mps 751 mmHg 94%
22:00 -19°C° 0 mm 1 mps 751 mmHg 95%
23:00 -19°C° 0 mm 1 mps 751 mmHg 96%

25 January, Monday

Time Temperature Precipitation Wind Pressure Humidity
00:00 -19°C° 0 mm 1 mps 751 mmHg 97%
01:00 -21°C° 0.1 mm 2 mps 752 mmHg 96%
02:00 -23°C° 0.1 mm 3 mps 752 mmHg 95%
03:00 -25°C° 0.1 mm 4 mps 753 mmHg 94%
04:00 -26°C° 0 mm 4 mps 753 mmHg 94%
05:00 -29°C° 0 mm 4 mps 754 mmHg 93%
06:00 -30°C° 0 mm 4 mps 754 mmHg 92%
07:00 -30°C° 0 mm 3 mps 755 mmHg 92%
08:00 -32°C° 0 mm 3 mps 755 mmHg 93%
09:00 -33°C° 0 mm 3 mps 756 mmHg 93%
10:00 -33°C° 0 mm 3 mps 756 mmHg 91%
11:00 -33°C° 0 mm 3 mps 757 mmHg 90%
12:00 -33°C° 0 mm 3 mps 757 mmHg 89%
13:00 -34°C° 0 mm 3 mps 757 mmHg 89%
14:00 -34°C° 0 mm 2 mps 758 mmHg 90%
15:00 -35°C° 0 mm 2 mps 758 mmHg 90%
16:00 -36°C° 0 mm 2 mps 759 mmHg 91%
17:00 -38°C° 0 mm 2 mps 759 mmHg 92%
18:00 -40°C° 0 mm 2 mps 759 mmHg 92%
19:00 -41°C° 0 mm 2 mps 759 mmHg 92%
20:00 -41°C° 0 mm 2 mps 759 mmHg 91%
21:00 -42°C° 0 mm 2 mps 760 mmHg 91%
22:00 -40°C° 0 mm 1 mps 759 mmHg 91%
23:00 -40°C° 0 mm 1 mps 759 mmHg 92%

26 January, Tuesday

Time Temperature Precipitation Wind Pressure Humidity
00:00 -41°C° 0 mm 1 mps 759 mmHg 92%
01:00 -40°C° 0 mm 1 mps 759 mmHg 94%
02:00 -40°C° 0 mm 1 mps 759 mmHg 95%
03:00 -39°C° 0 mm 1 mps 759 mmHg 97%
04:00 -38°C° 0 mm 1 mps 758 mmHg 97%
05:00 -38°C° 0 mm 1 mps 758 mmHg 97%
06:00 -37°C° 0 mm 1 mps 758 mmHg 98%
07:00 -36°C° 0 mm 0 mps 757 mmHg 97%
08:00 -35°C° 0 mm 0 mps 757 mmHg 97%
09:00 -34°C° 0 mm 0 mps 757 mmHg 97%
10:00 -34°C° 0 mm 0 mps 756 mmHg 95%
11:00 -33°C° 0 mm 0 mps 756 mmHg 94%
12:00 -33°C° 0 mm 1 mps 756 mmHg 92%
13:00 -33°C° 0 mm 1 mps 755 mmHg 93%
14:00 -33°C° 0 mm 1 mps 755 mmHg 94%
15:00 -33°C° 0 mm 1 mps 755 mmHg 95%
16:00 -33°C° 0 mm 1 mps 755 mmHg 96%
17:00 -37°C° 0 mm 2 mps 755 mmHg 97%
18:00 -38°C° 0 mm 2 mps 755 mmHg 97%
19:00 -38°C° 0 mm 2 mps 755 mmHg 97%
20:00 -39°C° 0 mm 2 mps 755 mmHg 97%
21:00 -39°C° 0 mm 2 mps 754 mmHg 97%
22:00 -40°C° 0 mm 2 mps 754 mmHg 98%
23:00 -40°C° 0 mm 2 mps 754 mmHg 98%
Show more